Regional Weather Roundup
Issued by NWS

Home | Current Version | Previous Version | Text Only | Print | Product List | Glossary On
Versions: 1 2 3 4 5 6 7 8 9 10 11 12 13 14 15 16 17 18 19 20 21 22 23 24 25 26 27 28 29 30 31 32 33 34 35 36 37 38 39 40 41 42 43 44 45 46 47 48 49 50
000
ASUS43 KOAX 260310
RWRNE

WEATHER ROUNDUP FOR NEBRASKA
NATIONAL WEATHER SERVICE OMAHA NE
1000 PM CDT TUE JUL 25 2017

NOTES: SATELLITE DATA IS BEING USED TO AUGMENT CLOUD COVER ABOVE
       12000 FEET.
       "FAIR" INDICATES FEW OR NO CLOUDS BELOW 12,000 FEET WITH NO
       SIGNIFICANT WEATHER AND/OR OBSTRUCTIONS TO VISIBILITY.


NEZ001>004-019>022-054>056-260400-
NEBRASKA PANHANDLE

CITY           SKY/WX    TMP DP  RH WIND       PRES   REMARKS
SCOTTSBLUFF    LGT RAIN  82  58  43 N12G23    30.03R
ALLIANCE       PTCLDY    79  61  53 N14       29.99R
CHADRON        CLOUDY    83  56  39 NE9       30.02R
GORDON         FAIR      75  63  67 NE13      30.01F
KIMBALL        CLOUDY    78  56  46 NW15G23   30.09S
SIDNEY         PTCLDY    83  59  44 NW12      29.99S
$$

NEZ057>060-069>072-079>082-260400-
SOUTHWEST NEBRASKA

CITY           SKY/WX    TMP DP  RH WIND       PRES   REMARKS
NORTH PLATTE   CLOUDY    90  65  43 SE10      29.86F HX  92
IMPERIAL       CLOUDY    77  63  61 W37G47    29.97R THUNDER
LEXINGTON      MOCLDY    84  69  59 SE10      29.89S
MCCOOK         MOCLDY    90  65  43 S13       29.87F HX  92
OGALLALA       CLOUDY    85  60  41 S23G35    29.91R
$$

NEZ005>010-023>029-035>040-094-260400-
NORTH CENTRAL NEBRASKA

CITY           SKY/WX    TMP DP  RH WIND       PRES   REMARKS
VALENTINE      RAIN      73  66  78 S6        30.01R
AINSWORTH      TSTM      71  69  95 NW23G31   29.99R
BROKEN BOW     CLOUDY    85  68  56 SE10      29.90R
O`NEILL        CLOUDY    82  69  64 S5        29.93R
ORD            CLOUDY    85  63  47 SE13G23   29.88R
THEDFORD       CLOUDY    72  66  80 N18G26    29.96F THUNDER
$$

NEZ041-046>049-061>064-073>077-083>087-260400-
SOUTH CENTRAL NEBRASKA

CITY           SKY/WX    TMP DP  RH WIND       PRES   REMARKS
GRAND ISLAND   CLOUDY    82  70  66 SE15G25   29.92S
AURORA         CLOUDY    81  67  63 S12       29.92S
HASTINGS       CLOUDY    84  63  49 SE14G21   29.94R
HEBRON         PTCLDY    84  67  56 SE7       29.94S
HOLDREGE       PTCLDY    81  66  60 SE9       29.91R
KEARNEY        CLOUDY    82  67  60 SE12      29.91S
YORK           PTCLDY    82  66  57 S12       29.93S
$$

NEZ011>018-030>034-042>045-260400-
NORTHEAST NEBRASKA

CITY           SKY/WX    TMP DP  RH WIND       PRES   REMARKS
NORFOLK        CLOUDY    83  67  58 SE14      29.89F
ALBION         CLOUDY    84  69  62 S12       29.91R
BLAIR          CLOUDY    86  71  60 SE15G24   29.95R HX  91
COLUMBUS       CLOUDY    83  67  58 SE12      29.92R
FREMONT        MOCLDY    85  70  59 SE13G18   29.94R HX  90
TEKAMAH        CLOUDY    82  71  69 SE8       29.93R
WAYNE          CLOUDY    83  72  69 SE13      29.91R
$$

NEZ050>053-065>068-078-088>093-260400-
SOUTHEAST NEBRASKA

CITY           SKY/WX    TMP DP  RH WIND       PRES   REMARKS
LINCOLN        MOCLDY    85  69  58 S15       29.94R
OMAHA EPPLEY   CLOUDY    86  73  65 SE16      29.95R HX  93
BEATRICE       CLEAR     86  69  57 SE12      29.95S HX  90
FALLS CITY     PTCLDY    82  72  71 SE8       29.97S
NEBRASKA CITY  PTCLDY    81  72  75 S8        29.98R
PLATTSMOUTH    CLOUDY    82  72  72 SE7       29.98R
$$

NEZ044-045-051>053-067-260400-
OMAHA AREA

CITY           SKY/WX    TMP DP  RH WIND       PRES   REMARKS
OMAHA EPPLEY   CLOUDY    86  73  65 SE16      29.95R HX  93
BLAIR          CLOUDY    86  71  60 SE15G24   29.95R HX  91
FREMONT        MOCLDY    85  70  59 SE13G18   29.94R HX  90
MILLARD        PTCLDY    86  74  68 SE9       29.95R HX  94
OFFUTT AFB     CLEAR     81  72  74 E9        29.96R
PLATTSMOUTH    CLOUDY    82  72  72 SE7       29.98R
WAHOO          FAIR      82  67  61 SE10      29.94R
$$



USA.gov is the U.S. government's official web portal to all federal, state and local government web resources and services.